User: anonymous   Login
Location: Unspecified
(0.0000°N, 0.0000°E)
Time: 18:47:13
(UTC+00:00)
Language:

CAS-4A - Orbit

View from above orbital plane
View from above orbital plane
View from above satellite
View from above satellite

Ground track
Ground track

The orbit data is extracted from the following two-line orbital elements,

1 42761U 17034D   19340.53984170  .00000018  00000-0  14626-4 0  9991
2 42761  43.0206  11.7950 0012837 253.8875 260.0980 15.09773500136652
Epoch (UTC): 06 December 2019 12:57:22
Eccentricity: 0.0012837
inclination: 43.0206°
perigee height: 528 km
apogee height: 546 km
right ascension of ascending node: 11.7950°
argument of perigee: 253.8875°
revolutions per day: 15.09773500
mean anomaly at epoch: 260.0980°
orbit number at epoch: 13665

The dashed part of the orbit path shows where the satellite is in the earth's shadow,  

DLR